When you browse on this site, cookies collect data to enhance your experience and personalize the content and advertising you see.
Visit our Privacy Policy to learn more. By continuing to use the site, you agree to this use of cookies and data.
  • In Belgien
  • Länderverzeichnis
  • Für 7 Tage
  • Wassertemperatur
  • Satellitenkarten
  • Wetterkarte
  • Widgets
  • user-avatar
    Anmelden

    Stündliche Wetter Banning

    Heute, 11 Dezember, Dienstag

    Zeit Temperatur Niederschläge Wind Luftdruck Luftfeuchtigkeit
    00:00 +12°C° 0 mm 1 m/S 699 mmHg 42%
    01:00 +11°C° 0 mm 1 m/S 699 mmHg 43%
    02:00 +11°C° 0 mm 1 m/S 699 mmHg 44%
    03:00 +10°C° 0 mm 1 m/S 699 mmHg 45%
    04:00 +10°C° 0 mm 1 m/S 699 mmHg 45%
    05:00 +10°C° 0 mm 1 m/S 699 mmHg 45%
    06:00 +10°C° 0 mm 1 m/S 699 mmHg 46%
    07:00 +9°C° 0 mm 1 m/S 699 mmHg 46%
    08:00 +12°C° 0 mm 1 m/S 700 mmHg 40%
    09:00 +14°C° 0 mm 1 m/S 700 mmHg 34%
    10:00 +18°C° 0 mm 1 m/S 701 mmHg 28%
    11:00 +18°C° 0 mm 1 m/S 701 mmHg 26%
    12:00 +19°C° 0 mm 1 m/S 701 mmHg 24%
    13:00 +18°C° 0 mm 2 m/S 700 mmHg 23%
    14:00 +18°C° 0 mm 2 m/S 700 mmHg 26%
    15:00 +17°C° 0 mm 2 m/S 700 mmHg 28%
    16:00 +16°C° 0 mm 1 m/S 700 mmHg 31%
    17:00 +15°C° 0 mm 1 m/S 700 mmHg 34%
    18:00 +13°C° 0 mm 1 m/S 700 mmHg 37%
    19:00 +12°C° 0 mm 1 m/S 700 mmHg 41%
    20:00 +11°C° 0 mm 1 m/S 700 mmHg 41%
    21:00 +11°C° 0 mm 1 m/S 700 mmHg 41%
    22:00 +11°C° 0 mm 1 m/S 701 mmHg 41%
    23:00 +10°C° 0 mm 1 m/S 700 mmHg 42%

    Morgen, 12 Dezember, Mittwoch

    Zeit Temperatur Niederschläge Wind Luftdruck Luftfeuchtigkeit
    00:00 +10°C° 0 mm 1 m/S 700 mmHg 42%
    01:00 +10°C° 0 mm 1 m/S 700 mmHg 42%
    02:00 +9°C° 0 mm 1 m/S 700 mmHg 42%
    03:00 +9°C° 0 mm 1 m/S 700 mmHg 42%
    04:00 +9°C° 0 mm 1 m/S 699 mmHg 42%
    05:00 +9°C° 0 mm 1 m/S 699 mmHg 42%
    06:00 +9°C° 0 mm 1 m/S 700 mmHg 41%
    07:00 +9°C° 0 mm 1 m/S 700 mmHg 40%
    08:00 +11°C° 0 mm 1 m/S 701 mmHg 35%
    09:00 +14°C° 0 mm 1 m/S 702 mmHg 29%
    10:00 +18°C° 0 mm 1 m/S 703 mmHg 24%
    11:00 +18°C° 0 mm 2 m/S 702 mmHg 23%
    12:00 +18°C° 0 mm 2 m/S 702 mmHg 23%
    13:00 +19°C° 0 mm 2 m/S 702 mmHg 22%
    14:00 +18°C° 0 mm 2 m/S 702 mmHg 25%
    15:00 +18°C° 0 mm 2 m/S 702 mmHg 28%
    16:00 +17°C° 0 mm 2 m/S 702 mmHg 30%
    17:00 +16°C° 0 mm 2 m/S 702 mmHg 31%
    18:00 +14°C° 0 mm 2 m/S 703 mmHg 31%
    19:00 +12°C° 0 mm 3 m/S 703 mmHg 32%
    20:00 +12°C° 0 mm 3 m/S 703 mmHg 30%
    21:00 +12°C° 0 mm 3 m/S 704 mmHg 28%
    22:00 +11°C° 0 mm 3 m/S 704 mmHg 26%
    23:00 +11°C° 0 mm 3 m/S 704 mmHg 27%

    übermorgen, 13 Dezember, Donnerstag

    Zeit Temperatur Niederschläge Wind Luftdruck Luftfeuchtigkeit
    00:00 +11°C° 0 mm 3 m/S 704 mmHg 28%
    01:00 +10°C° 0 mm 2 m/S 704 mmHg 29%
    02:00 +10°C° 0 mm 3 m/S 704 mmHg 29%
    03:00 +10°C° 0 mm 3 m/S 704 mmHg 29%
    04:00 +10°C° 0 mm 3 m/S 704 mmHg 30%
    05:00 +9°C° 0 mm 3 m/S 705 mmHg 30%
    06:00 +9°C° 0 mm 3 m/S 705 mmHg 30%
    07:00 +9°C° 0 mm 3 m/S 705 mmHg 30%
    08:00 +11°C° 0 mm 3 m/S 706 mmHg 26%
    09:00 +14°C° 0 mm 3 m/S 707 mmHg 21%
    10:00 +17°C° 0 mm 3 m/S 707 mmHg 16%
    11:00 +18°C° 0 mm 3 m/S 707 mmHg 14%
    12:00 +19°C° 0 mm 3 m/S 706 mmHg 12%
    13:00 +19°C° 0 mm 3 m/S 706 mmHg 10%
    14:00 +18°C° 0 mm 2 m/S 706 mmHg 13%
    15:00 +17°C° 0 mm 2 m/S 705 mmHg 15%
    16:00 +17°C° 0 mm 2 m/S 705 mmHg 17%
    17:00 +15°C° 0 mm 2 m/S 705 mmHg 18%
    18:00 +13°C° 0 mm 2 m/S 705 mmHg 18%
    19:00 +12°C° 0 mm 2 m/S 704 mmHg 19%
    20:00 +10°C° 0 mm 2 m/S 704 mmHg 19%
    21:00 +10°C° 0 mm 2 m/S 704 mmHg 19%
    22:00 +10°C° 0 mm 2 m/S 704 mmHg 19%
    23:00 +10°C° 0 mm 2 m/S 703 mmHg 19%

    14 Dezember, Freitag

    Zeit Temperatur Niederschläge Wind Luftdruck Luftfeuchtigkeit
    00:00 +9°C° 0 mm 2 m/S 703 mmHg 19%
    01:00 +9°C° 0 mm 2 m/S 702 mmHg 19%
    02:00 +10°C° 0 mm 1 m/S 702 mmHg 19%
    03:00 +10°C° 0 mm 1 m/S 702 mmHg 20%
    04:00 +9°C° 0 mm 1 m/S 701 mmHg 20%
    05:00 +9°C° 0 mm 1 m/S 701 mmHg 20%
    06:00 +9°C° 0 mm 1 m/S 701 mmHg 19%
    07:00 +9°C° 0 mm 1 m/S 701 mmHg 19%
    08:00 +12°C° 0 mm 1 m/S 702 mmHg 17%
    09:00 +14°C° 0 mm 1 m/S 702 mmHg 15%
    10:00 +16°C° 0 mm 1 m/S 703 mmHg 13%
    11:00 +18°C° 0 mm 1 m/S 702 mmHg 13%
    12:00 +18°C° 0 mm 1 m/S 701 mmHg 12%
    13:00 +19°C° 0 mm 1 m/S 701 mmHg 11%
    14:00 +18°C° 0 mm 1 m/S 700 mmHg 15%
    15:00 +16°C° 0 mm 1 m/S 700 mmHg 20%
    16:00 +15°C° 0 mm 1 m/S 699 mmHg 24%
    17:00 +14°C° 0 mm 1 m/S 699 mmHg 22%
    18:00 +12°C° 0 mm 1 m/S 699 mmHg 21%
    19:00 +11°C° 0 mm 1 m/S 699 mmHg 20%
    20:00 +11°C° 0 mm 1 m/S 699 mmHg 21%
    21:00 +10°C° 0 mm 1 m/S 699 mmHg 22%
    22:00 +10°C° 0 mm 1 m/S 699 mmHg 22%
    23:00 +9°C° 0 mm 1 m/S 698 mmHg 22%

    15 Dezember, Samstag

    Zeit Temperatur Niederschläge Wind Luftdruck Luftfeuchtigkeit
    00:00 +9°C° 0 mm 1 m/S 698 mmHg 22%
    01:00 +9°C° 0 mm 1 m/S 698 mmHg 22%
    02:00 +9°C° 0 mm 1 m/S 698 mmHg 24%
    03:00 +8°C° 0 mm 1 m/S 698 mmHg 26%
    04:00 +8°C° 0 mm 1 m/S 698 mmHg 28%
    05:00 +8°C° 0 mm 1 m/S 698 mmHg 30%
    06:00 +8°C° 0 mm 1 m/S 698 mmHg 32%
    07:00 +7°C° 0 mm 1 m/S 698 mmHg 35%
    08:00 +10°C° 0 mm 1 m/S 699 mmHg 29%
    09:00 +13°C° 0 mm 1 m/S 700 mmHg 22%
    10:00 +16°C° 0 mm 1 m/S 701 mmHg 16%
    11:00 +18°C° 0 mm 1 m/S 701 mmHg 16%
    12:00 +18°C° 0 mm 1 m/S 700 mmHg 16%
    13:00 +18°C° 0 mm 2 m/S 700 mmHg 16%
    14:00 +18°C° 0 mm 1 m/S 700 mmHg 20%
    15:00 +18°C° 0 mm 1 m/S 700 mmHg 23%
    16:00 +16°C° 0 mm 1 m/S 700 mmHg 26%
    17:00 +14°C° 0 mm 1 m/S 700 mmHg 28%
    18:00 +12°C° 0 mm 1 m/S 700 mmHg 30%
    19:00 +10°C° 0 mm 1 m/S 700 mmHg 32%
    20:00 +10°C° 0 mm 1 m/S 700 mmHg 33%
    21:00 +10°C° 0 mm 1 m/S 701 mmHg 33%
    22:00 +9°C° 0 mm 1 m/S 701 mmHg 34%
    23:00 +9°C° 0 mm 1 m/S 701 mmHg 34%

    16 Dezember, Sonntag

    Zeit Temperatur Niederschläge Wind Luftdruck Luftfeuchtigkeit
    00:00 +9°C° 0 mm 1 m/S 701 mmHg 35%
    01:00 +9°C° 0 mm 1 m/S 701 mmHg 36%
    02:00 +8°C° 0 mm 1 m/S 701 mmHg 38%
    03:00 +8°C° 0 mm 1 m/S 700 mmHg 39%
    04:00 +8°C° 0 mm 1 m/S 700 mmHg 41%
    05:00 +8°C° 0 mm 1 m/S 701 mmHg 41%
    06:00 +8°C° 0 mm 1 m/S 701 mmHg 41%
    07:00 +7°C° 0 mm 1 m/S 701 mmHg 42%
    08:00 +10°C° 0 mm 1 m/S 702 mmHg 35%
    09:00 +13°C° 0 mm 1 m/S 703 mmHg 28%
    10:00 +16°C° 0 mm 1 m/S 703 mmHg 21%
    11:00 +17°C° 0 mm 2 m/S 703 mmHg 22%
    12:00 +17°C° 0 mm 2 m/S 702 mmHg 22%
    13:00 +18°C° 0 mm 3 m/S 702 mmHg 23%
    14:00 +17°C° 0 mm 2 m/S 702 mmHg 26%
    15:00 +16°C° 0 mm 2 m/S 701 mmHg 30%
    16:00 +15°C° 0 mm 2 m/S 701 mmHg 33%
    17:00 +14°C° 0 mm 2 m/S 701 mmHg 38%
    18:00 +12°C° 0 mm 1 m/S 701 mmHg 42%
    19:00 +11°C° 0 mm 1 m/S 701 mmHg 47%
    20:00 +11°C° 0 mm 1 m/S 701 mmHg 48%
    21:00 +11°C° 0 mm 1 m/S 701 mmHg 50%
    22:00 +10°C° 0 mm 1 m/S 701 mmHg 52%
    23:00 +10°C° 0 mm 1 m/S 701 mmHg 53%
    Mehr zeigen